Volver al catálogo

ATLAS 5 CENTAUR DEB

ActivoHEO
NORAD 43952·DEBRIS·🇺🇸 United States

Lanzado Sep 17, 2014 desde Cape Canaveral Space Force Station

Loading…

Próximos Pases (próximas 24 horas)

TLE

ActualizadoSource: Space-Track

Época: Sep 13, 2026, 07:39 UTC

1 43952U 14055F   26256.31944425 -.00000245  00000-0  00000-0 0  9993
2 43952  21.4606  67.1914 5126952 306.6843  16.2438  1.97446791 57770

Sigue ATLAS 5 CENTAUR DEB en tiempo real con AllMySat

Download on the App Store